Time,TemperatureF,DewpointF,PressureIn,WindDirection,WindDirectionDegrees,WindSpeedMPH,WindSpeedGustMPH,Humidity,HourlyPrecipIn,Conditions,Clouds,dailyrainin,SoftwareType,DateUTC
2013-05-09 02:00:00,49.2,47.3,30.18,ENE,57,0.0,7.0,93,0.00,,,0.00,Wunderground v.1.15,2013-05-09 09:00:00,
2013-05-09 03:40:00,48.5,47.1,30.18,NE,37,0.0,7.0,95,0.00,,,0.00,Wunderground v.1.15,2013-05-09 10:40:00,
2013-05-09 09:50:00,50.1,48.2,30.18,NE,53,2.0,7.0,93,0.00,,,0.00,Wunderground v.1.15,2013-05-09 16:50:00,
2013-05-09 09:55:00,50.5,48.3,30.18,North,4,1.0,7.0,92,0.00,,,0.00,Wunderground v.1.15,2013-05-09 16:55:00,
2013-05-09 10:00:00,50.8,48.6,30.18,NNW,332,1.0,1.0,92,0.00,,,0.00,Wunderground v.1.15,2013-05-09 17:00:00,
2013-05-09 10:10:00,51.4,48.9,30.18,NNE,31,1.0,7.0,91,0.00,,,0.00,Wunderground v.1.15,2013-05-09 17:10:00,
2013-05-09 10:15:00,51.8,49.3,30.18,NNE,30,2.0,7.0,91,0.00,,,0.00,Wunderground v.1.15,2013-05-09 17:15:00,
2013-05-09 10:20:00,52.0,49.2,30.18,NNE,26,3.0,3.0,90,0.00,,,0.00,Wunderground v.1.15,2013-05-09 17:20:00,
2013-05-09 10:30:00,52.5,49.4,30.18,ENE,63,3.0,3.0,89,0.00,,,0.00,Wunderground v.1.15,2013-05-09 17:30:00,
2013-05-09 10:35:00,52.9,49.7,30.18,NE,43,2.0,7.0,89,0.00,,,0.00,Wunderground v.1.15,2013-05-09 17:35:00,
2013-05-09 10:40:00,53.4,49.9,30.18,NE,48,1.0,1.0,88,0.00,,,0.00,Wunderground v.1.15,2013-05-09 17:40:00,
2013-05-09 10:45:00,54.0,50.5,30.17,NE,36,1.0,3.0,88,0.00,,,0.00,Wunderground v.1.15,2013-05-09 17:45:00,
2013-05-09 10:55:00,55.2,51.1,30.17,ESE,123,2.0,7.0,86,0.00,,,0.00,Wunderground v.1.15,2013-05-09 17:55:00,
2013-05-09 11:00:00,56.3,51.8,30.17,WNW,285,1.0,1.0,85,0.00,,,0.00,Wunderground v.1.15,2013-05-09 18:00:00,
2013-05-09 11:05:00,57.3,52.2,30.17,ENE,62,1.0,7.0,83,0.00,,,0.00,Wunderground v.1.15,2013-05-09 18:05:00,
2013-05-09 11:10:00,58.0,52.2,30.17,East,79,1.0,1.0,81,0.00,,,0.00,Wunderground v.1.15,2013-05-09 18:10:00,
2013-05-09 11:20:00,59.1,52.6,30.17,NNE,26,1.0,1.0,79,0.00,,,0.00,Wunderground v.1.15,2013-05-09 18:20:00,
2013-05-09 11:25:00,59.6,52.7,30.17,SSE,158,2.0,2.0,78,0.00,,,0.00,Wunderground v.1.15,2013-05-09 18:25:00,
2013-05-09 11:30:00,59.8,52.9,30.17,ESE,103,2.0,2.0,78,0.00,,,0.00,Wunderground v.1.15,2013-05-09 18:30:00,
2013-05-09 11:40:00,60.2,53.3,30.17,ENE,69,2.0,2.0,78,0.00,,,0.00,Wunderground v.1.15,2013-05-09 18:40:00,
2013-05-09 11:45:00,60.8,53.5,30.17,NNE,26,1.0,7.0,77,0.00,,,0.00,Wunderground v.1.15,2013-05-09 18:45:00,
2013-05-09 11:50:00,61.7,54.1,30.17,NE,37,1.0,7.0,76,0.00,,,0.00,Wunderground v.1.15,2013-05-09 18:50:00,
2013-05-09 11:55:00,62.2,54.2,30.17,NNE,22,2.0,7.0,75,0.00,,,0.00,Wunderground v.1.15,2013-05-09 18:55:00,
2013-05-09 12:00:00,62.3,53.9,30.16,NNE,30,3.0,3.0,74,0.00,,,0.00,Wunderground v.1.15,2013-05-09 19:00:00,
2013-05-09 12:10:00,63.1,54.3,30.16,NE,43,2.0,2.0,73,0.00,,,0.00,Wunderground v.1.15,2013-05-09 19:10:00,
2013-05-09 12:15:00,63.3,54.5,30.16,NE,39,4.0,6.0,73,0.00,,,0.00,Wunderground v.1.15,2013-05-09 19:15:00,
2013-05-09 12:20:00,63.6,54.8,30.16,NNE,33,4.0,4.0,73,0.00,,,0.00,Wunderground v.1.15,2013-05-09 19:20:00,
2013-05-09 12:25:00,64.1,55.3,30.16,North,8,4.0,5.0,73,0.00,,,0.00,Wunderground v.1.15,2013-05-09 19:25:00,
2013-05-09 12:30:00,64.7,55.5,30.15,NNE,29,4.0,6.0,72,0.00,,,0.00,Wunderground v.1.15,2013-05-09 19:30:00,
2013-05-09 12:40:00,66.3,56.2,30.15,NNE,17,3.0,5.0,70,0.00,,,0.00,Wunderground v.1.15,2013-05-09 19:40:00,
2013-05-09 12:45:00,66.7,56.6,30.15,ENE,59,4.0,9.0,70,0.00,,,0.00,Wunderground v.1.15,2013-05-09 19:45:00,
2013-05-09 12:55:00,67.7,56.3,30.15,WNW,299,2.0,4.0,67,0.00,,,0.00,Wunderground v.1.15,2013-05-09 19:55:00,
2013-05-09 13:00:00,68.2,57.2,30.15,North,359,2.0,2.0,68,0.00,,,0.00,Wunderground v.1.15,2013-05-09 20:00:00,
2013-05-09 13:05:00,68.8,56.6,30.15,West,262,3.0,3.0,65,0.00,,,0.00,Wunderground v.1.15,2013-05-09 20:05:00,
2013-05-09 13:10:00,69.3,57.0,30.15,WSW,251,3.0,3.0,65,0.00,,,0.00,Wunderground v.1.15,2013-05-09 20:10:00,
2013-05-09 13:20:00,69.0,57.2,30.15,NNE,33,4.0,4.0,66,0.00,,,0.00,Wunderground v.1.15,2013-05-09 20:20:00,
2013-05-09 13:25:00,69.1,57.3,30.15,ESE,107,3.0,7.0,66,0.00,,,0.00,Wunderground v.1.15,2013-05-09 20:25:00,
2013-05-09 13:30:00,69.0,56.3,30.15,NE,37,4.0,7.0,64,0.00,,,0.00,Wunderground v.1.15,2013-05-09 20:30:00,
2013-05-09 13:35:00,68.4,56.6,30.15,NNE,31,5.0,7.0,66,0.00,,,0.00,Wunderground v.1.15,2013-05-09 20:35:00,
2013-05-09 13:45:00,67.8,56.0,30.15,North,354,6.0,7.0,66,0.00,,,0.00,Wunderground v.1.15,2013-05-09 20:45:00,
2013-05-09 13:50:00,67.7,56.3,30.15,WNW,287,5.0,5.0,67,0.00,,,0.00,Wunderground v.1.15,2013-05-09 20:50:00,
2013-05-09 13:55:00,68.0,55.8,30.15,ENE,60,4.0,7.0,65,0.00,,,0.00,Wunderground v.1.15,2013-05-09 20:55:00,
2013-05-09 14:05:00,66.8,54.7,30.15,NNE,12,5.0,7.0,65,0.00,,,0.00,Wunderground v.1.15,2013-05-09 21:05:00,
2013-05-09 14:10:00,66.2,55.3,30.15,North,349,6.0,6.0,68,0.00,,,0.00,Wunderground v.1.15,2013-05-09 21:10:00,
2013-05-09 14:15:00,66.0,54.7,30.15,NE,52,5.0,7.0,67,0.00,,,0.00,Wunderground v.1.15,2013-05-09 21:15:00,
2013-05-09 14:25:00,66.2,55.7,30.15,NE,54,3.0,7.0,69,0.00,,,0.00,Wunderground v.1.15,2013-05-09 21:25:00,
2013-05-09 14:30:00,66.1,55.6,30.15,NNE,25,3.0,7.0,69,0.00,,,0.00,Wunderground v.1.15,2013-05-09 21:30:00,
2013-05-09 14:35:00,65.6,54.8,30.15,NNE,14,4.0,7.0,68,0.00,,,0.00,Wunderground v.1.15,2013-05-09 21:35:00,
2013-05-09 14:45:00,65.3,54.1,30.15,NNE,24,3.0,7.0,67,0.00,,,0.00,Wunderground v.1.15,2013-05-09 21:45:00,
2013-05-09 14:50:00,64.7,53.9,30.15,NNE,31,4.0,7.0,68,0.00,,,0.00,Wunderground v.1.15,2013-05-09 21:50:00,
2013-05-09 14:55:00,64.7,53.9,30.15,NNE,29,4.0,7.0,68,0.00,,,0.00,Wunderground v.1.15,2013-05-09 21:55:00,
2013-05-09 15:05:00,64.6,53.8,30.14,NNE,12,4.0,7.0,68,0.00,,,0.00,Wunderground v.1.15,2013-05-09 22:05:00,
2013-05-09 15:10:00,64.1,54.1,30.14,NE,41,5.0,10.0,70,0.00,,,0.00,Wunderground v.1.15,2013-05-09 22:10:00,
2013-05-09 15:15:00,64.2,54.2,30.14,ENE,61,6.0,10.0,70,0.00,,,0.00,Wunderground v.1.15,2013-05-09 22:15:00,
2013-05-09 15:25:00,64.3,54.7,30.14,ENE,63,5.0,10.0,71,0.00,,,0.00,Wunderground v.1.15,2013-05-09 22:25:00,
2013-05-09 15:30:00,64.1,53.7,30.14,WSW,251,4.0,7.0,69,0.00,,,0.00,Wunderground v.1.15,2013-05-09 22:30:00,
2013-05-09 15:35:00,64.1,54.1,30.14,WSW,244,4.0,7.0,70,0.00,,,0.00,Wunderground v.1.15,2013-05-09 22:35:00,
2013-05-09 15:40:00,64.0,53.6,30.13,ENE,70,5.0,5.0,69,0.00,,,0.00,Wunderground v.1.15,2013-05-09 22:40:00,
2013-05-09 15:50:00,63.9,53.9,30.13,SW,236,4.0,4.0,70,0.00,,,0.00,Wunderground v.1.15,2013-05-09 22:50:00,
2013-05-09 15:55:00,64.5,54.1,30.13,NNE,33,2.0,7.0,69,0.00,,,0.00,Wunderground v.1.15,2013-05-09 22:55:00,
2013-05-09 16:00:00,64.5,54.1,30.13,ENE,66,3.0,7.0,69,0.00,,,0.00,Wunderground v.1.15,2013-05-09 23:00:00,
2013-05-09 16:10:00,63.9,53.5,30.13,WNW,296,4.0,4.0,69,0.00,,,0.00,Wunderground v.1.15,2013-05-09 23:10:00,
2013-05-09 16:15:00,63.8,54.2,30.13,ENE,59,4.0,7.0,71,0.00,,,0.00,Wunderground v.1.15,2013-05-09 23:15:00,
2013-05-09 16:20:00,63.8,53.8,30.13,ESE,108,4.0,4.0,70,0.00,,,0.00,Wunderground v.1.15,2013-05-09 23:20:00,
2013-05-09 16:30:00,64.1,53.7,30.12,NE,40,3.0,3.0,69,0.00,,,0.00,Wunderground v.1.15,2013-05-09 23:30:00,
2013-05-09 16:35:00,64.3,54.3,30.12,WNW,285,3.0,7.0,70,0.00,,,0.00,Wunderground v.1.15,2013-05-09 23:35:00,
2013-05-09 16:40:00,64.2,53.8,30.12,NNE,17,2.0,7.0,69,0.00,,,0.00,Wunderground v.1.15,2013-05-09 23:40:00,
2013-05-09 16:45:00,63.9,53.5,30.12,WNW,285,3.0,7.0,69,0.00,,,0.00,Wunderground v.1.15,2013-05-09 23:45:00,
2013-05-09 16:55:00,63.4,53.8,30.12,East,79,2.0,7.0,71,0.00,,,0.00,Wunderground v.1.15,2013-05-09 23:55:00,
2013-05-09 17:00:00,63.3,53.7,30.12,West,276,2.0,2.0,71,0.00,,,0.00,Wunderground v.1.15,2013-05-10 00:00:00,
2013-05-09 17:05:00,63.4,53.4,30.12,WSW,249,3.0,4.0,70,0.00,,,0.00,Wunderground v.1.15,2013-05-10 00:05:00,
2013-05-09 17:15:00,63.5,53.5,30.12,WNW,297,2.0,7.0,70,0.00,,,0.00,Wunderground v.1.15,2013-05-10 00:15:00,
2013-05-09 17:20:00,63.4,53.0,30.12,West,274,2.0,7.0,69,0.00,,,0.00,Wunderground v.1.15,2013-05-10 00:20:00,
2013-05-09 17:25:00,62.6,53.1,30.12,NNE,24,2.0,7.0,71,0.00,,,0.00,Wunderground v.1.15,2013-05-10 00:25:00,
2013-05-09 17:35:00,61.7,52.2,30.13,WSW,257,2.0,7.0,71,0.00,,,0.00,Wunderground v.1.15,2013-05-10 00:35:00,
2013-05-09 17:40:00,61.1,52.0,30.13,South,185,2.0,2.0,72,0.00,,,0.00,Wunderground v.1.15,2013-05-10 00:40:00,
2013-05-09 17:45:00,60.5,51.8,30.13,NW,307,2.0,7.0,73,0.00,,,0.00,Wunderground v.1.15,2013-05-10 00:45:00,
2013-05-09 17:55:00,59.4,51.8,30.13,WNW,288,2.0,7.0,76,0.00,,,0.00,Wunderground v.1.15,2013-05-10 00:55:00,
2013-05-09 18:00:00,58.6,51.1,30.13,NW,312,2.0,7.0,76,0.00,,,0.00,Wunderground v.1.15,2013-05-10 01:00:00,
2013-05-09 18:05:00,57.8,50.6,30.13,WNW,291,3.0,7.0,77,0.00,,,0.00,Wunderground v.1.15,2013-05-10 01:05:00,
2013-05-09 18:10:00,57.0,50.9,30.13,WNW,296,3.0,3.0,80,0.00,,,0.00,Wunderground v.1.15,2013-05-10 01:10:00,
2013-05-09 18:20:00,56.8,50.7,30.13,WSW,247,2.0,2.0,80,0.00,,,0.00,Wunderground v.1.15,2013-05-10 01:20:00,
2013-05-09 18:25:00,57.5,51.4,30.13,NNW,330,1.0,7.0,80,0.00,,,0.00,Wunderground v.1.15,2013-05-10 01:25:00,
2013-05-09 18:30:00,57.7,50.9,30.13,West,270,1.0,7.0,78,0.00,,,0.00,Wunderground v.1.15,2013-05-10 01:30:00,
2013-05-09 18:40:00,57.3,50.8,30.13,North,4,2.0,2.0,79,0.00,,,0.00,Wunderground v.1.15,2013-05-10 01:40:00,
2013-05-09 18:45:00,57.2,51.1,30.13,NNE,31,2.0,7.0,80,0.00,,,0.00,Wunderground v.1.15,2013-05-10 01:45:00,
2013-05-09 18:50:00,57.3,51.2,30.13,WNW,286,2.0,2.0,80,0.00,,,0.00,Wunderground v.1.15,2013-05-10 01:50:00,
2013-05-09 19:00:00,57.3,50.8,30.13,WNW,288,1.0,7.0,79,0.00,,,0.00,Wunderground v.1.15,2013-05-10 02:00:00,
2013-05-09 19:05:00,57.0,50.9,30.13,North,4,2.0,7.0,80,0.00,,,0.00,Wunderground v.1.15,2013-05-10 02:05:00,
2013-05-09 19:10:00,56.9,50.8,30.14,North,354,1.0,1.0,80,0.00,,,0.00,Wunderground v.1.15,2013-05-10 02:10:00,
2013-05-09 19:15:00,56.4,50.6,30.14,West,281,1.0,7.0,81,0.00,,,0.00,Wunderground v.1.15,2013-05-10 02:15:00,
2013-05-09 19:25:00,55.0,49.9,30.14,WSW,251,2.0,7.0,83,0.00,,,0.00,Wunderground v.1.15,2013-05-10 02:25:00,
2013-05-09 19:30:00,54.5,49.8,30.15,West,272,1.0,1.0,84,0.00,,,0.00,Wunderground v.1.15,2013-05-10 02:30:00,
2013-05-09 19:35:00,54.2,49.8,30.15,WNW,288,0.0,7.0,85,0.00,,,0.00,Wunderground v.1.15,2013-05-10 02:35:00,
2013-05-09 19:45:00,53.6,49.5,30.15,ENE,67,1.0,7.0,86,0.00,,,0.00,Wunderground v.1.15,2013-05-10 02:45:00,
2013-05-09 19:50:00,53.3,49.2,30.16,ENE,69,1.0,1.0,86,0.00,,,0.00,Wunderground v.1.15,2013-05-10 02:50:00,
2013-05-09 19:55:00,53.0,49.2,30.15,ENE,62,1.0,7.0,87,0.00,,,0.00,Wunderground v.1.15,2013-05-10 02:55:00,
2013-05-09 20:05:00,52.4,48.9,30.16,ENE,66,0.0,7.0,88,0.00,,,0.00,Wunderground v.1.15,2013-05-10 03:05:00,
2013-05-09 20:10:00,52.1,48.7,30.16,NE,44,1.0,1.0,88,0.00,,,0.00,Wunderground v.1.15,2013-05-10 03:10:00,
2013-05-09 20:15:00,51.7,48.6,30.17,WSW,249,1.0,7.0,89,0.00,,,0.00,Wunderground v.1.15,2013-05-10 03:15:00,
2013-05-09 20:20:00,51.5,48.4,30.17,NW,314,0.0,7.0,89,0.00,,,0.00,Wunderground v.1.15,2013-05-10 03:20:00,
2013-05-09 20:30:00,51.4,48.6,30.17,NNE,31,0.0,7.0,90,0.00,,,0.00,Wunderground v.1.15,2013-05-10 03:30:00,
2013-05-09 20:35:00,51.2,48.4,30.17,ENE,62,1.0,7.0,90,0.00,,,0.00,Wunderground v.1.15,2013-05-10 03:35:00,
2013-05-09 20:40:00,51.2,48.4,30.17,NNW,337,1.0,1.0,90,0.00,,,0.00,Wunderground v.1.15,2013-05-10 03:40:00,
2013-05-09 20:50:00,50.9,48.4,30.18,NNW,330,1.0,1.0,91,0.00,,,0.00,Wunderground v.1.15,2013-05-10 03:50:00,
2013-05-09 20:55:00,50.8,48.3,30.18,WNW,287,1.0,2.0,91,0.00,,,0.00,Wunderground v.1.15,2013-05-10 03:55:00,
2013-05-09 21:00:00,50.4,47.9,30.18,WNW,286,0.0,7.0,91,0.00,,,0.00,Wunderground v.1.15,2013-05-10 04:00:00,
2013-05-09 21:05:00,50.2,48.0,30.18,ENE,58,1.0,7.0,92,0.00,,,0.00,Wunderground v.1.15,2013-05-10 04:05:00,
2013-05-09 21:10:00,50.1,47.9,30.18,NE,50,1.0,7.0,92,0.00,,,0.00,Wunderground v.1.15,2013-05-10 04:10:00,
2013-05-09 21:15:00,50.1,47.9,30.18,NE,52,1.0,7.0,92,0.00,,,0.00,Wunderground v.1.15,2013-05-10 04:15:00,
2013-05-09 21:20:00,50.1,47.9,30.18,NE,35,0.0,7.0,92,0.00,,,0.00,Wunderground v.1.15,2013-05-10 04:20:00,
2013-05-09 21:30:00,49.7,47.8,30.18,NE,46,1.0,7.0,93,0.00,,,0.00,Wunderground v.1.15,2013-05-10 04:30:00,
2013-05-09 21:35:00,49.7,47.8,30.18,NE,49,1.0,7.0,93,0.00,,,0.00,Wunderground v.1.15,2013-05-10 04:35:00,
2013-05-09 21:40:00,49.6,47.7,30.18,ENE,66,1.0,7.0,93,0.00,,,0.00,Wunderground v.1.15,2013-05-10 04:40:00,
2013-05-09 21:45:00,49.5,47.6,30.19,NE,45,1.0,7.0,93,0.00,,,0.00,Wunderground v.1.15,2013-05-10 04:45:00,
2013-05-09 21:55:00,49.3,47.6,30.19,NE,52,1.0,7.0,94,0.00,,,0.00,Wunderground v.1.15,2013-05-10 04:55:00,
2013-05-09 22:00:00,49.2,47.5,30.19,NE,41,1.0,1.0,94,0.00,,,0.00,Wunderground v.1.15,2013-05-10 05:00:00,
2013-05-09 22:10:00,49.1,47.4,30.19,NE,42,0.0,7.0,94,0.00,,,0.00,Wunderground v.1.15,2013-05-10 05:10:00,
2013-05-09 22:15:00,49.1,47.4,30.19,NE,43,0.0,7.0,94,0.00,,,0.00,Wunderground v.1.15,2013-05-10 05:15:00,
2013-05-09 22:20:00,49.0,47.3,30.19,NNE,12,0.0,7.0,94,0.00,,,0.00,Wunderground v.1.15,2013-05-10 05:20:00,
2013-05-09 22:25:00,48.9,47.2,30.19,NW,324,0.0,7.0,94,0.00,,,0.00,Wunderground v.1.15,2013-05-10 05:25:00,
2013-05-09 22:35:00,48.8,47.4,30.19,NW,313,0.0,7.0,95,0.00,,,0.00,Wunderground v.1.15,2013-05-10 05:35:00,
2013-05-09 22:40:00,48.8,47.4,30.19,NW,313,0.0,7.0,95,0.00,,,0.00,Wunderground v.1.15,2013-05-10 05:40:00,
2013-05-09 22:45:00,48.8,47.4,30.19,NW,313,0.0,7.0,95,0.00,,,0.00,Wunderground v.1.15,2013-05-10 05:45:00,
2013-05-09 22:50:00,48.9,47.5,30.19,NW,313,0.0,7.0,95,0.00,,,0.00,Wunderground v.1.15,2013-05-10 05:50:00,
2013-05-09 23:00:00,49.0,47.6,30.19,NW,305,0.0,7.0,95,0.00,,,0.00,Wunderground v.1.15,2013-05-10 06:00:00,
2013-05-09 23:05:00,49.0,47.6,30.19,NW,305,0.0,7.0,95,0.00,,,0.00,Wunderground v.1.15,2013-05-10 06:05:00,
2013-05-09 23:10:00,49.0,47.6,30.19,NW,305,0.0,7.0,95,0.00,,,0.00,Wunderground v.1.15,2013-05-10 06:10:00,
2013-05-09 23:20:00,49.0,47.6,30.20,NW,305,0.0,7.0,95,0.00,,,0.00,Wunderground v.1.15,2013-05-10 06:20:00,
2013-05-09 23:25:00,49.0,47.6,30.20,SSW,199,0.0,7.0,95,0.00,,,0.00,Wunderground v.1.15,2013-05-10 06:25:00,